sat.trackr.live / text

‹ back to catalog

STARLINK-5884

NORAD 55957 · 2023-037AV

PAYLOAD ACTIVE UNKNOWN

§ Identity

Operator
Country
US
Launch date
2023-03-17
Launch site
AFWTR
Launch vehicle
Mass (kg)
RCS (m²)

Purposes: comms

External: N2YO · Heavens-Above · Gunter

§ Orbital elements

Epoch: 2026-05-24T17:49:37.120800Z

Period
96.11 min
Inclination
70.0001°
Eccentricity
0.0003072
Mean motion
14.98329399 rev/d
Perigee alt
569.9 km
Apogee alt
574.2 km
Semi-major
6,950.2 km
B*
3.3735e-5
RAAN
72.7636°
Arg perigee
264.6795°
Mean anomaly
95.4014°
Rev number
17,586

§ Raw data

STARLINK-58841 55957U 23037AV  26144.74279075  .00000310  00000+0  33735-4 0  99922 55957  70.0001  72.7636 0003072 264.6795  95.4014 14.98329399175860

JSON: /api/v1/satellites/55957 · /tle

For live sub-satellite position, see the globe view (requires WebGL).

§ Visibility from observer

Set your observer location to see the next 7 days of passes ≥ 10°. The values pass through the URL so the page stays shareable.

No JS? Fill the form by hand. The geolocation button needs JavaScript.